Tracking 17138 objects as of 3-July-2015
HD Live streaming from Space Station

CZ-3C R/B

Track CZ-3C R/B now!
10-day predictions
CZ-3C R/B is classified as:


NORAD ID: 36591
Int'l Code: 2010-024B
Perigee: 182.5 km
Apogee: 21,107.9 km
Inclination: 20.7 °
Period: 368.2 minutes
Semi major axis: 17016 km
RCS: 15.0139 m2 (large)
Launch date: June 2, 2010
Source: People's Republic of China (PRC)

Note: This is a ROCKET BODY
Your satellite tracking list
Your tracking list is empty





NASA's NSSDC Master Catalog

Two Line Element Set (TLE):
1 36591U 10024B   15183.80937515  .00057417 -35492-6  91152-3 0  9992
2 36591 020.6746 158.7197 6148691 267.3384 021.0931 03.91119278 56285

Source of the keplerian elements: AFSPC

N2YO: 250